Time,TemperatureF,DewpointF,PressureIn,WindDirection,WindDirectionDegrees,WindSpeedMPH,WindSpeedGustMPH,Humidity,HourlyPrecipIn,Conditions,Clouds,dailyrainin,SoftwareType,DateUTC
2013-02-19 00:00:00,36.1,23.0,30.32,SW,229,0.0,-999.0,59,-99.99,,,0.00,weatherlink.com 1.10,2013-02-19 05:00:00,
2013-02-19 00:16:00,35.8,23.0,30.31,SW,229,0.0,-999.0,59,-99.99,,,0.00,weatherlink.com 1.10,2013-02-19 05:16:00,
2013-02-19 00:30:00,35.4,22.0,30.30,SW,229,0.0,-999.0,59,-99.99,,,0.00,weatherlink.com 1.10,2013-02-19 05:30:00,
2013-02-19 00:45:00,35.0,22.0,30.31,SW,229,0.0,-999.0,60,-99.99,,,0.00,weatherlink.com 1.10,2013-02-19 05:45:00,
2013-02-19 01:01:00,34.6,22.0,30.30,SW,229,0.0,-999.0,61,-99.99,,,0.00,weatherlink.com 1.10,2013-02-19 06:01:00,
2013-02-19 01:16:00,34.2,22.0,30.30,SW,229,0.0,-999.0,62,-99.99,,,0.00,weatherlink.com 1.10,2013-02-19 06:16:00,
2013-02-19 01:31:00,33.9,22.0,30.29,SW,229,0.0,-999.0,63,-99.99,,,0.00,weatherlink.com 1.10,2013-02-19 06:31:00,
2013-02-19 01:46:00,33.6,23.0,30.28,SW,229,0.0,-999.0,65,-99.99,,,0.00,weatherlink.com 1.10,2013-02-19 06:46:00,
2013-02-19 02:01:00,33.1,23.0,30.27,SW,229,0.0,-999.0,66,-99.99,,,0.00,weatherlink.com 1.10,2013-02-19 07:01:00,
2013-02-19 02:16:00,32.7,22.0,30.25,SW,229,0.0,-999.0,66,-99.99,,,0.00,weatherlink.com 1.10,2013-02-19 07:16:00,
2013-02-19 02:32:00,32.5,23.0,30.25,SW,229,0.0,-999.0,67,-99.99,,,0.00,weatherlink.com 1.10,2013-02-19 07:32:00,
2013-02-19 02:46:00,32.1,23.0,30.24,SW,229,0.0,-999.0,69,-99.99,,,0.00,weatherlink.com 1.10,2013-02-19 07:46:00,
2013-02-19 03:01:00,31.7,23.0,30.25,SW,229,0.0,-999.0,70,-99.99,,,0.00,weatherlink.com 1.10,2013-02-19 08:01:00,
2013-02-19 03:17:00,31.7,23.0,30.25,SW,229,0.0,-999.0,70,-99.99,,,0.00,weatherlink.com 1.10,2013-02-19 08:17:00,
2013-02-19 03:32:00,32.1,23.0,30.23,SW,229,0.0,-999.0,70,-99.99,,,0.00,weatherlink.com 1.10,2013-02-19 08:32:00,
2013-02-19 03:47:00,32.3,24.0,30.22,SW,229,0.0,-999.0,71,-99.99,,,0.00,weatherlink.com 1.10,2013-02-19 08:47:00,
2013-02-19 04:02:00,32.8,24.0,30.22,SW,229,1.0,-999.0,71,-99.99,,,0.00,weatherlink.com 1.10,2013-02-19 09:02:00,
2013-02-19 04:17:00,33.1,24.0,30.22,SW,229,0.0,-999.0,70,-99.99,,,0.00,weatherlink.com 1.10,2013-02-19 09:17:00,
2013-02-19 04:32:00,33.5,24.0,30.22,SW,229,0.0,-999.0,68,-99.99,,,0.00,weatherlink.com 1.10,2013-02-19 09:32:00,
2013-02-19 04:47:00,33.9,24.0,30.21,SW,229,0.0,-999.0,67,-99.99,,,0.00,weatherlink.com 1.10,2013-02-19 09:47:00,
2013-02-19 05:02:00,34.5,24.0,30.21,SW,229,0.0,-999.0,65,-99.99,,,0.00,weatherlink.com 1.10,2013-02-19 10:02:00,
2013-02-19 05:19:00,34.9,24.0,30.20,SW,229,0.0,-999.0,65,-99.99,,,0.00,weatherlink.com 1.10,2013-02-19 10:19:00,
2013-02-19 05:32:00,35.2,24.0,30.20,SW,229,0.0,-999.0,65,-99.99,,,0.00,weatherlink.com 1.10,2013-02-19 10:32:00,
2013-02-19 05:48:00,35.4,25.0,30.20,SW,229,0.0,-999.0,65,-99.99,,,0.00,weatherlink.com 1.10,2013-02-19 10:48:00,
2013-02-19 06:03:00,35.6,25.0,30.20,SW,229,0.0,-999.0,65,-99.99,,,0.00,weatherlink.com 1.10,2013-02-19 11:03:00,
2013-02-19 06:18:00,35.9,25.0,30.20,SW,229,0.0,-999.0,65,-99.99,,,0.00,weatherlink.com 1.10,2013-02-19 11:18:00,
2013-02-19 06:33:00,36.2,25.0,30.20,SW,229,0.0,-999.0,65,-99.99,,,0.00,weatherlink.com 1.10,2013-02-19 11:33:00,
2013-02-19 06:48:00,36.4,26.0,30.20,SW,229,0.0,-999.0,65,-99.99,,,0.00,weatherlink.com 1.10,2013-02-19 11:48:00,
2013-02-19 07:03:00,36.7,27.0,30.18,SW,229,0.0,-999.0,69,-99.99,,,0.01,weatherlink.com 1.10,2013-02-19 12:03:00,
2013-02-19 07:18:00,36.6,28.0,30.18,SW,229,1.0,-999.0,72,-99.99,,,0.03,weatherlink.com 1.10,2013-02-19 12:18:00,
2013-02-19 07:33:00,36.3,29.0,30.18,SW,229,0.0,-999.0,74,-99.99,,,0.05,weatherlink.com 1.10,2013-02-19 12:33:00,
2013-02-19 07:48:00,35.9,29.0,30.18,SW,229,0.0,-999.0,75,-99.99,,,0.06,weatherlink.com 1.10,2013-02-19 12:48:00,
2013-02-19 08:03:00,35.5,29.0,30.18,SW,229,0.0,-999.0,76,-99.99,,,0.07,weatherlink.com 1.10,2013-02-19 13:03:00,
2013-02-19 08:19:00,35.3,29.0,30.17,SW,229,0.0,-999.0,77,-99.99,,,0.08,weatherlink.com 1.10,2013-02-19 13:19:00,
2013-02-19 08:33:00,35.1,29.0,30.17,SW,229,0.0,-999.0,78,-99.99,,,0.08,weatherlink.com 1.10,2013-02-19 13:33:00,
2013-02-19 08:49:00,35.1,29.0,30.16,SW,229,0.0,-999.0,79,-99.99,,,0.08,weatherlink.com 1.10,2013-02-19 13:49:00,
2013-02-19 09:04:00,35.2,30.0,30.14,SSW,207,0.0,-999.0,80,-99.99,,,0.08,weatherlink.com 1.10,2013-02-19 14:04:00,
2013-02-19 09:19:00,35.3,30.0,30.13,SSW,207,0.0,-999.0,80,-99.99,,,0.08,weatherlink.com 1.10,2013-02-19 14:19:00,
2013-02-19 09:34:00,35.5,30.0,30.13,SSW,207,0.0,-999.0,81,-99.99,,,0.08,weatherlink.com 1.10,2013-02-19 14:34:00,
2013-02-19 09:49:00,35.7,30.0,30.13,SSW,208,1.0,-999.0,81,-99.99,,,0.08,weatherlink.com 1.10,2013-02-19 14:49:00,
2013-02-19 10:04:00,35.9,31.0,30.12,SSW,208,0.0,-999.0,81,-99.99,,,0.08,weatherlink.com 1.10,2013-02-19 15:04:00,
2013-02-19 10:19:00,36.1,31.0,30.11,SSW,208,0.0,-999.0,82,-99.99,,,0.09,weatherlink.com 1.10,2013-02-19 15:19:00,
2013-02-19 10:35:00,36.4,31.0,30.11,ESE,112,0.0,-999.0,82,-99.99,,,0.09,weatherlink.com 1.10,2013-02-19 15:35:00,
2013-02-19 10:49:00,36.9,32.0,30.11,South,176,0.0,-999.0,83,-99.99,,,0.09,weatherlink.com 1.10,2013-02-19 15:49:00,
2013-02-19 11:04:00,37.6,33.0,30.10,WSW,251,0.0,-999.0,83,-99.99,,,0.09,weatherlink.com 1.10,2013-02-19 16:04:00,
2013-02-19 11:20:00,38.4,34.0,30.09,WSW,251,0.0,-999.0,83,-99.99,,,0.09,weatherlink.com 1.10,2013-02-19 16:20:00,
2013-02-19 11:35:00,39.6,35.0,30.08,WSW,251,0.0,-999.0,84,-99.99,,,0.09,weatherlink.com 1.10,2013-02-19 16:35:00,
2013-02-19 11:50:00,41.7,37.0,30.07,SW,225,1.0,-999.0,83,-99.99,,,0.09,weatherlink.com 1.10,2013-02-19 16:50:00,
2013-02-19 12:05:00,42.3,37.0,30.06,SW,223,0.0,-999.0,82,-99.99,,,0.09,weatherlink.com 1.10,2013-02-19 17:05:00,
2013-02-19 12:20:00,42.8,38.0,30.05,WSW,253,1.0,-999.0,82,-99.99,,,0.09,weatherlink.com 1.10,2013-02-19 17:20:00,
2013-02-19 12:35:00,43.1,38.0,30.04,WSW,255,1.0,-999.0,81,-99.99,,,0.09,weatherlink.com 1.10,2013-02-19 17:35:00,
2013-02-19 12:51:00,43.9,38.0,30.02,SW,232,0.0,-999.0,80,-99.99,,,0.09,weatherlink.com 1.10,2013-02-19 17:51:00,
2013-02-19 13:06:00,43.9,38.0,30.02,SSW,196,1.0,-999.0,79,-99.99,,,0.09,weatherlink.com 1.10,2013-02-19 18:06:00,
2013-02-19 13:36:00,45.4,39.0,30.01,West,274,2.0,-999.0,77,-99.99,,,0.09,weatherlink.com 1.10,2013-02-19 18:36:00,
2013-02-19 13:51:00,46.4,39.0,30.00,SSW,199,0.0,-999.0,75,-99.99,,,0.09,weatherlink.com 1.10,2013-02-19 18:51:00,
2013-02-19 14:06:00,47.4,40.0,30.00,West,265,0.0,-999.0,75,-99.99,,,0.09,weatherlink.com 1.10,2013-02-19 19:06:00,
2013-02-19 14:21:00,48.6,40.0,29.99,West,278,0.0,-999.0,71,-99.99,,,0.09,weatherlink.com 1.10,2013-02-19 19:21:00,
2013-02-19 14:36:00,48.1,39.0,29.98,SSW,208,0.0,-999.0,71,-99.99,,,0.09,weatherlink.com 1.10,2013-02-19 19:36:00,
2013-02-19 14:54:00,48.7,39.0,29.98,South,181,0.0,-999.0,70,-99.99,,,0.09,weatherlink.com 1.10,2013-02-19 19:54:00,
2013-02-19 15:06:00,48.2,39.0,29.97,South,184,0.0,-999.0,71,-99.99,,,0.09,weatherlink.com 1.10,2013-02-19 20:06:00,
2013-02-19 15:21:00,49.1,40.0,29.97,WSW,242,0.0,-999.0,70,-99.99,,,0.09,weatherlink.com 1.10,2013-02-19 20:21:00,
2013-02-19 15:36:00,48.9,39.0,29.96,SSW,208,0.0,-999.0,70,-99.99,,,0.09,weatherlink.com 1.10,2013-02-19 20:36:00,
2013-02-19 15:52:00,48.9,39.0,29.97,South,174,0.0,-999.0,69,-99.99,,,0.09,weatherlink.com 1.10,2013-02-19 20:52:00,
2013-02-19 16:07:00,49.2,40.0,29.97,WSW,245,0.0,-999.0,70,-99.99,,,0.09,weatherlink.com 1.10,2013-02-19 21:07:00,
2013-02-19 16:22:00,48.9,39.0,29.97,SSW,204,0.0,-999.0,69,-99.99,,,0.09,weatherlink.com 1.10,2013-02-19 21:22:00,
2013-02-19 16:37:00,47.9,39.0,29.97,South,190,1.0,-999.0,71,-99.99,,,0.09,weatherlink.com 1.10,2013-02-19 21:37:00,
2013-02-19 16:52:00,47.4,39.0,29.98,South,191,0.0,-999.0,73,-99.99,,,0.09,weatherlink.com 1.10,2013-02-19 21:52:00,
2013-02-19 17:07:00,46.8,39.0,29.99,SSW,192,0.0,-999.0,74,-99.99,,,0.09,weatherlink.com 1.10,2013-02-19 22:07:00,
2013-02-19 17:22:00,46.6,39.0,29.99,SSW,192,0.0,-999.0,75,-99.99,,,0.09,weatherlink.com 1.10,2013-02-19 22:22:00,
2013-02-19 17:37:00,46.5,39.0,30.00,SSW,192,0.0,-999.0,75,-99.99,,,0.09,weatherlink.com 1.10,2013-02-19 22:37:00,
2013-02-19 17:52:00,45.6,38.0,30.00,SSW,192,0.0,-999.0,76,-99.99,,,0.09,weatherlink.com 1.10,2013-02-19 22:52:00,
2013-02-19 18:07:00,45.0,38.0,30.01,SSW,192,0.0,-999.0,77,-99.99,,,0.09,weatherlink.com 1.10,2013-02-19 23:07:00,
2013-02-19 18:23:00,44.0,37.0,30.03,SSW,194,2.0,-999.0,77,-99.99,,,0.09,weatherlink.com 1.10,2013-02-19 23:23:00,
2013-02-19 18:38:00,44.6,27.0,30.03,SW,233,6.0,-999.0,51,-99.99,,,0.09,weatherlink.com 1.10,2013-02-19 23:38:00,
2013-02-19 18:52:00,46.5,21.0,30.04,WNW,296,10.0,-999.0,37,-99.99,,,0.09,weatherlink.com 1.10,2013-02-19 23:52:00,
2013-02-19 19:08:00,47.1,22.0,30.05,WSW,256,4.0,-999.0,37,-99.99,,,0.09,weatherlink.com 1.10,2013-02-20 00:08:00,
2013-02-19 19:23:00,46.9,21.0,30.05,NW,324,6.0,-999.0,36,-99.99,,,0.09,weatherlink.com 1.10,2013-02-20 00:23:00,
2013-02-19 19:38:00,47.1,18.0,30.06,West,268,6.0,-999.0,32,-99.99,,,0.09,weatherlink.com 1.10,2013-02-20 00:38:00,
2013-02-19 19:53:00,46.8,17.0,30.06,NNW,334,7.0,-999.0,31,-99.99,,,0.09,weatherlink.com 1.10,2013-02-20 00:53:00,
2013-02-19 20:08:00,46.7,17.0,30.06,North,353,4.0,-999.0,30,-99.99,,,0.09,weatherlink.com 1.10,2013-02-20 01:08:00,
2013-02-19 20:23:00,46.2,15.0,30.07,NW,317,5.0,-999.0,29,-99.99,,,0.09,weatherlink.com 1.10,2013-02-20 01:23:00,
2013-02-19 20:38:00,45.8,16.0,30.07,North,11,7.0,-999.0,30,-99.99,,,0.09,weatherlink.com 1.10,2013-02-20 01:38:00,
2013-02-19 20:53:00,45.4,18.0,30.08,WNW,292,0.0,-999.0,34,-99.99,,,0.09,weatherlink.com 1.10,2013-02-20 01:53:00,
2013-02-19 21:08:00,44.5,18.0,30.09,NW,313,0.0,-999.0,35,-99.99,,,0.09,weatherlink.com 1.10,2013-02-20 02:08:00,
2013-02-19 21:24:00,43.5,16.0,30.09,WNW,292,5.0,-999.0,33,-99.99,,,0.09,weatherlink.com 1.10,2013-02-20 02:24:00,
2013-02-19 21:39:00,42.9,19.0,30.10,West,281,0.0,-999.0,39,-99.99,,,0.09,weatherlink.com 1.10,2013-02-20 02:39:00,
2013-02-19 21:53:00,42.4,16.0,30.10,NNW,342,3.0,-999.0,34,-99.99,,,0.09,weatherlink.com 1.10,2013-02-20 02:53:00,
2013-02-19 22:09:00,42.2,13.0,30.10,NNW,336,4.0,-999.0,31,-99.99,,,0.09,weatherlink.com 1.10,2013-02-20 03:09:00,
2013-02-19 22:24:00,42.2,13.0,30.10,West,273,4.0,-999.0,31,-99.99,,,0.09,weatherlink.com 1.10,2013-02-20 03:24:00,
2013-02-19 22:39:00,42.1,13.0,30.10,NNW,348,6.0,-999.0,30,-99.99,,,0.09,weatherlink.com 1.10,2013-02-20 03:39:00,
2013-02-19 22:54:00,41.6,13.0,30.11,NW,317,2.0,-999.0,31,-99.99,,,0.09,weatherlink.com 1.10,2013-02-20 03:54:00,
2013-02-19 23:09:00,41.4,12.0,30.11,NNW,334,3.0,-999.0,30,-99.99,,,0.09,weatherlink.com 1.10,2013-02-20 04:09:00,
2013-02-19 23:24:00,41.2,12.0,30.11,WNW,293,3.0,-999.0,30,-99.99,,,0.09,weatherlink.com 1.10,2013-02-20 04:24:00,
2013-02-19 23:39:00,40.8,12.0,30.12,NW,317,4.0,-999.0,31,-99.99,,,0.09,weatherlink.com 1.10,2013-02-20 04:39:00,
2013-02-19 23:54:00,40.3,13.0,30.12,NNE,30,0.0,-999.0,33,-99.99,,,0.09,weatherlink.com 1.10,2013-02-20 04:54:00,